| time (UTC) | temp F | wind direction | speed MPH | gust MPH | rain 1hr in | rain 24hr in | rain mn in | humidity % | barometer mb |
| 20260510123019 | 64 | 203 | 13.0 | 21.0 | 0.00 | 0.48 | 0.00 | 59 | 1010.1 |
| 20260510122019 | 64 | 203 | 13.0 | 20.0 | 0.00 | 0.48 | 0.00 | 60 | 1010.4 |
| 20260510121019 | 64 | 203 | 12.0 | 22.0 | 0.00 | 0.48 | 0.00 | 59 | 1010.5 |
| 20260510120019 | 64 | 203 | 14.0 | 23.0 | 0.00 | 0.48 | 0.00 | 58 | 1010.4 |
| 20260510115039 | 64 | 203 | 13.0 | 22.0 | 0.00 | 0.48 | 0.00 | 56 | 1010.4 |
| 20260510114019 | 64 | 203 | 15.0 | 25.0 | 0.00 | 0.48 | 0.00 | 59 | 1010.6 |
| 20260510113019 | 65 | 203 | 12.0 | 22.0 | 0.00 | 0.48 | 0.00 | 58 | 1010.5 |
| 20260510112019 | 64 | 203 | 6.0 | 13.0 | 0.00 | 0.48 | 0.00 | 61 | 1010.8 |
| 20260510111019 | 64 | 158 | 4.0 | 7.0 | 0.00 | 0.48 | 0.00 | 63 | 1010.9 |
| 20260510110019 | 63 | 90 | 2.0 | 5.0 | 0.00 | 0.48 | 0.00 | 73 | 1010.8 |
| 20260510105019 | 62 | 135 | 2.0 | 7.0 | 0.00 | 0.48 | 0.00 | 75 | 1011.1 |
| 20260510104019 | 61 | 113 | 2.0 | 6.0 | 0.00 | 0.48 | 0.00 | 77 | 1011.1 |
| 20260510103019 | 60 | 158 | 2.0 | 5.0 | 0.00 | 0.48 | 0.00 | 78 | 1011.2 |
| 20260510102019 | 60 | 135 | 3.0 | 7.0 | 0.00 | 0.48 | 0.00 | 79 | 1011.3 |
| 20260510101019 | 59 | 135 | 2.0 | 5.0 | 0.00 | 0.48 | 0.00 | 81 | 1011.3 |
| 20260510100039 | 57 | 158 | 2.0 | 5.0 | 0.00 | 0.48 | 0.00 | 83 | 1011.2 |
| 20260510095019 | 56 | 203 | 1.0 | 4.0 | 0.00 | 0.48 | 0.00 | 85 | 1011.4 |
| 20260510094019 | 54 | 158 | 2.0 | 4.0 | 0.00 | 0.48 | 0.00 | 87 | 1011.3 |
| 20260510093019 | 54 | 158 | 3.0 | 5.0 | 0.00 | 0.48 | 0.00 | 88 | 1011.2 |
| 20260510092018 | 53 | 180 | 3.0 | 6.0 | 0.00 | 0.48 | 0.00 | 89 | 1011.1 |
| 20260510091019 | 53 | 180 | 2.0 | 5.0 | 0.00 | 0.48 | 0.00 | 87 | 1011.2 |
| 20260510090039 | 53 | 180 | 2.0 | 4.0 | 0.00 | 0.48 | 0.00 | 86 | 1011.2 |
| 20260510085019 | 53 | 135 | 1.0 | 3.0 | 0.00 | 0.48 | 0.00 | 86 | 1011.3 |
| 20260510084018 | 52 | 203 | 1.0 | 4.0 | 0.00 | 0.48 | 0.00 | 86 | 1011.2 |
| 20260510083018 | 52 | 135 | 1.0 | 3.0 | 0.00 | 0.48 | 0.00 | 87 | 1011.3 |
| 20260510082018 | 51 | 90 | 1.0 | 4.0 | 0.00 | 0.48 | 0.00 | 89 | 1011.3 |
| 20260510081019 | 50 | 180 | 2.0 | 4.0 | 0.00 | 0.48 | 0.00 | 90 | 1011.1 |
| 20260510080018 | 50 | 180 | 1.0 | 4.0 | 0.00 | 0.48 | 0.00 | 91 | 1011.1 |
| 20260510075019 | 50 | 158 | 2.0 | 4.0 | 0.00 | 0.48 | 0.00 | 90 | 1010.9 |
| 20260510074038 | 50 | 158 | 2.0 | 5.0 | 0.00 | 0.48 | 0.00 | 90 | 1011.0 |
| 20260510073018 | 50 | 158 | 2.0 | 4.0 | 0.00 | 0.48 | 0.00 | 89 | 1011.0 |
| 20260510072018 | 51 | 158 | 3.0 | 4.0 | 0.00 | 0.48 | 0.00 | 88 | 1010.9 |
| 20260510071018 | 50 | 158 | 2.0 | 4.0 | 0.00 | 0.48 | 0.00 | 88 | 1010.6 |
| 20260510070018 | 50 | 158 | 1.0 | 3.0 | 0.00 | 0.48 | 0.00 | 87 | 1010.5 |
| 20260510065018 | 51 | 225 | 1.0 | 3.0 | 0.00 | 0.48 | 0.00 | 86 | 1010.6 |
| 20260510064018 | 51 | 135 | 1.0 | 2.0 | 0.00 | 0.48 | 0.00 | 87 | 1010.5 |
| 20260510063038 | 51 | 158 | 1.0 | 2.0 | 0.00 | 0.48 | 0.00 | 86 | 1010.6 |
| 20260510062038 | 51 | 113 | 1.0 | 2.0 | 0.00 | 0.48 | 0.00 | 85 | 1010.5 |
| 20260510061018 | 50 | 113 | 1.0 | 2.0 | 0.00 | 0.48 | 0.00 | 87 | 1010.5 |
| 20260510060018 | 49 | 23 | 1.0 | 4.0 | 0.00 | 0.48 | 0.00 | 90 | 1010.3 |
| 20260510055018 | 48 | 45 | 3.0 | 4.0 | 0.00 | 0.48 | 0.00 | 89 | 1010.4 |
| 20260510054018 | 48 | 45 | 3.0 | 5.0 | 0.00 | 0.48 | 0.00 | 89 | 1010.0 |
| 20260510053018 | 48 | 68 | 2.0 | 5.0 | 0.00 | 0.48 | 0.00 | 89 | 1010.0 |
| 20260510052018 | 48 | 68 | 1.0 | 5.0 | 0.00 | 0.48 | 0.00 | 89 | 1009.9 |
| 20260510051018 | 48 | 68 | 2.0 | 5.0 | 0.00 | 0.48 | 0.00 | 90 | 1009.9 |
| 20260510050018 | 47 | 45 | 1.0 | 4.0 | 0.00 | 0.48 | 0.00 | 91 | 1009.9 |
| 20260510045018 | 47 | 0.0 | 0.0 | 0.00 | 0.48 | 0.00 | 90 | 1009.9 | |
| 20260510044018 | 48 | 0.0 | 0.0 | 0.00 | 0.48 | 0.00 | 90 | 1010.1 | |
| 20260510043018 | 48 | 0.0 | 0.0 | 0.00 | 0.48 | 0.00 | 90 | 1010.2 | |
| 20260510042018 | 48 | 0.0 | 1.0 | 0.00 | 0.48 | 0.00 | 90 | 1010.2 | |
| 20260510041018 | 48 | 90 | 1.0 | 5.0 | 0.00 | 0.48 | 0.00 | 91 | 1010.3 |
| 20260510040018 | 48 | 23 | 2.0 | 8.0 | 0.00 | 0.48 | 0.00 | 91 | 1010.5 |
| 20260510035038 | 47 | 23 | 5.0 | 11.0 | 0.00 | 0.48 | 0.00 | 91 | 1010.2 |
| 20260510034018 | 48 | 45 | 4.0 | 9.0 | 0.00 | 0.48 | 0.00 | 91 | 1010.5 |
| 20260510033018 | 48 | 45 | 6.0 | 10.0 | 0.00 | 0.48 | 0.00 | 92 | 1010.3 |
| 20260510032018 | 48 | 45 | 6.0 | 10.0 | 0.00 | 0.48 | 0.00 | 93 | 1010.5 |
| 20260510031018 | 48 | 45 | 5.0 | 9.0 | 0.00 | 0.48 | 0.00 | 92 | 1010.6 |
| 20260510030020 | 48 | 45 | 4.0 | 7.0 | 0.00 | 0.48 | 0.00 | 91 | 1010.6 |
| 20260510025040 | 48 | 23 | 4.0 | 7.0 | 0.00 | 0.48 | 0.00 | 90 | 1010.9 |
| 20260510024019 | 48 | 23 | 4.0 | 7.0 | 0.00 | 0.48 | 0.00 | 89 | 1010.9 |
| 20260510023019 | 49 | 23 | 3.0 | 5.0 | 0.00 | 0.48 | 0.00 | 87 | 1011.2 |
| 20260510022019 | 49 | 315 | 1.0 | 3.0 | 0.00 | 0.48 | 0.00 | 87 | 1011.2 |
| 20260510021019 | 50 | 315 | 2.0 | 4.0 | 0.00 | 0.48 | 0.00 | 87 | 1011.3 |
| 20260510020019 | 50 | 315 | 3.0 | 4.0 | 0.00 | 0.48 | 0.00 | 86 | 1011.2 |
| 20260510015139 | 50 | 315 | 2.0 | 4.0 | 0.00 | 0.48 | 0.00 | 86 | 1011.1 |
| 20260510014019 | 50 | 315 | 2.0 | 3.0 | 0.00 | 0.48 | 0.00 | 86 | 1011.1 |
| 20260510013019 | 50 | 0 | 1.0 | 2.0 | 0.00 | 0.48 | 0.00 | 86 | 1011.1 |
| 20260510012019 | 50 | 0 | 2.0 | 4.0 | 0.00 | 0.48 | 0.00 | 86 | 1011.2 |
| 20260510011019 | 50 | 23 | 3.0 | 5.0 | 0.00 | 0.48 | 0.00 | 86 | 1011.3 |
| 20260510010019 | 51 | 23 | 1.0 | 4.0 | 0.00 | 0.48 | 0.00 | 87 | 1011.4 |
| 20260510005018 | 51 | 23 | 2.0 | 3.0 | 0.00 | 0.48 | 0.00 | 88 | 1011.4 |
| 20260510004018 | 51 | 293 | 2.0 | 3.0 | 0.00 | 0.48 | 0.00 | 87 | 1011.7 |
| 20260510003038 | 51 | 270 | 1.0 | 3.0 | 0.00 | 0.48 | 0.00 | 89 | 1011.7 |
| 20260510002038 | 51 | 270 | 1.0 | 3.0 | 0.00 | 0.48 | 0.00 | 89 | 1011.9 |
| 20260510001018 | 51 | 338 | 1.0 | 3.0 | 0.00 | 0.48 | 0.00 | 89 | 1011.9 |
| 20260510000018 | 51 | 68 | 1.0 | 3.0 | 0.00 | 0.48 | 0.48 | 88 | 1012.1 |
| 20260509235018 | 51 | 68 | 2.0 | 4.0 | 0.00 | 0.48 | 0.48 | 88 | 1012.1 |
| 20260509234018 | 51 | 90 | 2.0 | 4.0 | 0.00 | 0.48 | 0.48 | 88 | 1012.2 |
| 20260509233018 | 52 | 68 | 2.0 | 4.0 | 0.00 | 0.48 | 0.48 | 88 | 1012.2 |
| 20260509232018 | 52 | 23 | 3.0 | 6.0 | 0.00 | 0.48 | 0.48 | 87 | 1012.5 |
| 20260509231018 | 52 | 0 | 1.0 | 3.0 | 0.00 | 0.48 | 0.48 | 85 | 1012.6 |
| 20260509230018 | 52 | 0.0 | 1.0 | 0.00 | 0.48 | 0.48 | 87 | 1012.7 | |
| 20260509225038 | 52 | 0.0 | 1.0 | 0.00 | 0.48 | 0.48 | 87 | 1012.7 | |
| 20260509224018 | 52 | 0.0 | 2.0 | 0.00 | 0.48 | 0.48 | 87 | 1012.8 | |
| 20260509223018 | 52 | 0.0 | 1.0 | 0.00 | 0.48 | 0.48 | 87 | 1012.8 | |
| 20260509222018 | 52 | 0 | 1.0 | 3.0 | 0.00 | 0.48 | 0.48 | 86 | 1012.6 |
| 20260509221018 | 52 | 23 | 3.0 | 6.0 | 0.00 | 0.48 | 0.48 | 87 | 1012.5 |
| 20260509220018 | 52 | 338 | 3.0 | 6.0 | 0.00 | 0.48 | 0.48 | 86 | 1012.4 |
| 20260509215018 | 52 | 315 | 1.0 | 3.0 | 0.00 | 0.48 | 0.48 | 87 | 1012.5 |
| 20260509214018 | 52 | 315 | 2.0 | 6.0 | 0.00 | 0.48 | 0.48 | 88 | 1012.3 |
| 20260509213018 | 52 | 293 | 3.0 | 7.0 | 0.00 | 0.48 | 0.48 | 89 | 1012.3 |
| 20260509212018 | 52 | 248 | 5.0 | 8.0 | 0.00 | 0.48 | 0.48 | 89 | 1012.4 |
| 20260509211018 | 52 | 180 | 3.0 | 6.0 | 0.00 | 0.48 | 0.48 | 87 | 1012.2 |
| 20260509210018 | 53 | 45 | 5.0 | 11.0 | 0.00 | 0.48 | 0.48 | 81 | 1011.9 |
| 20260509205018 | 53 | 23 | 9.0 | 13.0 | 0.00 | 0.48 | 0.48 | 79 | 1011.7 |
| 20260509204018 | 53 | 23 | 9.0 | 15.0 | 0.00 | 0.48 | 0.48 | 80 | 1011.7 |
| 20260509203018 | 53 | 23 | 8.0 | 13.0 | 0.00 | 0.48 | 0.48 | 81 | 1011.5 |
| 20260509202038 | 53 | 45 | 8.0 | 11.0 | 0.00 | 0.48 | 0.48 | 82 | 1011.3 |
| 20260509201018 | 54 | 45 | 6.0 | 10.0 | 0.00 | 0.48 | 0.48 | 78 | 1011.2 |
| 20260509200018 | 54 | 0 | 4.0 | 9.0 | 0.00 | 0.48 | 0.48 | 78 | 1011.1 |
| 20260509195017 | 53 | 23 | 3.0 | 5.0 | 0.01 | 0.48 | 0.48 | 83 | 1010.9 |
| 20260509194018 | 53 | 23 | 4.0 | 9.0 | 0.01 | 0.48 | 0.48 | 82 | 1010.5 |
| 20260509193018 | 53 | 68 | 2.0 | 9.0 | 0.01 | 0.48 | 0.48 | 82 | 1010.3 |
| 20260509192018 | 54 | 45 | 2.0 | 7.0 | 0.02 | 0.48 | 0.48 | 83 | 1010.2 |
| 20260509191018 | 53 | 45 | 5.0 | 10.0 | 0.02 | 0.48 | 0.48 | 82 | 1009.7 |
| 20260509190017 | 54 | 45 | 7.0 | 11.0 | 0.02 | 0.48 | 0.48 | 83 | 1009.6 |
| 20260509185018 | 53 | 45 | 7.0 | 11.0 | 0.03 | 0.47 | 0.47 | 84 | 1009.5 |
| 20260509184019 | 54 | 68 | 8.0 | 14.0 | 0.05 | 0.47 | 0.47 | 85 | 1009.4 |
| 20260509183020 | 54 | 68 | 10.0 | 16.0 | 0.07 | 0.47 | 0.47 | 84 | 1009.3 |
| 20260509182139 | 54 | 68 | 11.0 | 16.0 | 0.09 | 0.46 | 0.46 | 83 | 1009.2 |
| 20260509181019 | 53 | 45 | 7.0 | 12.0 | 0.12 | 0.46 | 0.46 | 85 | 1009.3 |
| 20260509180019 | 54 | 45 | 8.0 | 13.0 | 0.14 | 0.46 | 0.46 | 85 | 1009.4 |
| 20260509175019 | 54 | 45 | 8.0 | 13.0 | 0.16 | 0.44 | 0.44 | 84 | 1009.6 |
| 20260509174019 | 54 | 23 | 7.0 | 12.0 | 0.18 | 0.43 | 0.43 | 86 | 1009.7 |
| 20260509173019 | 54 | 45 | 6.0 | 11.0 | 0.19 | 0.40 | 0.40 | 89 | 1010.0 |
| 20260509172019 | 54 | 45 | 4.0 | 8.0 | 0.22 | 0.37 | 0.37 | 89 | 1010.4 |
| 20260509171039 | 53 | 90 | 2.0 | 5.0 | 0.31 | 0.34 | 0.34 | 90 | 1010.7 |
| 20260509170019 | 54 | 0 | 2.0 | 4.0 | 0.31 | 0.31 | 0.31 | 90 | 1010.8 |
| 20260509165019 | 54 | 203 | 2.0 | 6.0 | 0.28 | 0.28 | 0.28 | 90 | 1010.9 |
| 20260509164039 | 54 | 180 | 4.0 | 8.0 | 0.24 | 0.24 | 0.25 | 89 | 1011.0 |
| 20260509163019 | 54 | 203 | 6.0 | 11.0 | 0.21 | 0.21 | 0.21 | 87 | 1011.0 |
| 20260509162019 | 56 | 203 | 5.0 | 10.0 | 0.15 | 0.15 | 0.15 | 85 | 1011.2 |
| 20260509161019 | 57 | 203 | 5.0 | 9.0 | 0.02 | 0.02 | 0.02 | 82 | 1011.1 |
| 20260509160019 | 58 | 203 | 7.0 | 10.0 | 0.00 | 0.00 | 0.00 | 78 | 1011.1 |
| 20260509155019 | 58 | 135 | 4.0 | 8.0 | 0.00 | 0.00 | 0.00 | 75 | 1010.6 |
| 20260509154039 | 59 | 180 | 3.0 | 5.0 | 0.00 | 0.00 | 0.00 | 75 | 1010.3 |
| 20260509153019 | 59 | 180 | 2.0 | 4.0 | 0.00 | 0.00 | 0.00 | 75 | 1009.9 |
| 20260509152039 | 59 | 90 | 2.0 | 5.0 | 0.00 | 0.00 | 0.00 | 72 | 1009.8 |
| 20260509151019 | 59 | 135 | 2.0 | 6.0 | 0.00 | 0.00 | 0.00 | 72 | 1009.7 |
| 20260509150019 | 59 | 135 | 3.0 | 5.0 | 0.00 | 0.00 | 0.00 | 73 | 1009.9 |
| 20260509145019 | 59 | 90 | 3.0 | 6.0 | 0.00 | 0.00 | 0.00 | 73 | 1010.1 |
| 20260509144019 | 59 | 90 | 6.0 | 10.0 | 0.00 | 0.00 | 0.00 | 73 | 1010.1 |
| 20260509143019 | 59 | 68 | 8.0 | 12.0 | 0.00 | 0.00 | 0.00 | 71 | 1010.3 |
| 20260509142019 | 59 | 90 | 5.0 | 14.0 | 0.00 | 0.00 | 0.00 | 69 | 1010.5 |
| 20260509141019 | 59 | 338 | 5.0 | 11.0 | 0.00 | 0.00 | 0.00 | 70 | 1010.7 |
| 20260509140019 | 59 | 315 | 5.0 | 8.0 | 0.00 | 0.00 | 0.00 | 72 | 1010.9 |
| 20260509135019 | 59 | 225 | 3.0 | 6.0 | 0.00 | 0.00 | 0.00 | 72 | 1011.4 |
| 20260509134019 | 59 | 203 | 4.0 | 6.0 | 0.00 | 0.00 | 0.00 | 72 | 1011.8 |
| 20260509133019 | 59 | 203 | 6.0 | 10.0 | 0.00 | 0.00 | 0.00 | 73 | 1011.8 |
| 20260509132019 | 59 | 203 | 5.0 | 10.0 | 0.00 | 0.00 | 0.00 | 72 | 1011.7 |
| 20260509131018 | 60 | 180 | 6.0 | 10.0 | 0.00 | 0.00 | 0.00 | 71 | 1011.5 |
| 20260509130019 | 60 | 158 | 5.0 | 9.0 | 0.00 | 0.00 | 0.00 | 69 | 1011.3 |
| 20260509125018 | 60 | 135 | 6.0 | 13.0 | 0.00 | 0.00 | 0.00 | 69 | 1011.3 |
| 20260509124018 | 61 | 135 | 6.0 | 13.0 | 0.00 | 0.00 | 0.00 | 67 | 1011.7 |